sat.trackr.live / text

‹ back to catalog

EUTELSAT KA-SAT 9A

NORAD 37258 · 2010-069A

PAYLOAD ACTIVE UNKNOWN

§ Identity

Operator
Country
EUTE
Launch date
2010-12-26
Launch site
TYMSC
Launch vehicle
Mass (kg)
RCS (m²)
15.85

Purposes: comms

External: N2YO · Heavens-Above · Gunter

§ Orbital elements

Epoch: 2026-05-25T03:47:09.517920Z

Period
1,436.11 min
Inclination
0.0622°
Eccentricity
0.0003671
Mean motion
1.00270746 rev/d
Perigee alt
35,771.4 km
Apogee alt
35,802.4 km
Semi-major
42,165.0 km
B*
0.0000e+0
RAAN
11.3871°
Arg perigee
114.1129°
Mean anomaly
183.0249°
Rev number
4,377

§ Raw data

EUTELSAT KA-SAT 9A1 37258U 10069A   26145.15774905  .00000059  00000+0  00000+0 0  99992 37258   0.0622  11.3871 0003671 114.1129 183.0249  1.00270746 43779

JSON: /api/v1/satellites/37258 · /tle

For live sub-satellite position, see the globe view (requires WebGL).

§ Visibility from observer

Set your observer location to see the next 7 days of passes ≥ 10°. The values pass through the URL so the page stays shareable.

No JS? Fill the form by hand. The geolocation button needs JavaScript.